"Pseudo-MPEC" for C2YMPL2

Created 2020 Aug 6 7:07:04 UT using Find_Orb

Click here for an explanation of pseudo-MPECs

 
 Astrometry: 
     C2YMPL2  C2020 07 30.42800 23 29 44.81 +06 16 39.5    ~7UBM 22.8 GVNEOCPG96
     C2YMPL2  C2020 07 30.43523 23 29 45.13 +06 16 47.5    ~7UBM 21.8 GVNEOCPG96
     C2YMPL2  C2020 07 30.44244 23 29 45.54 +06 16 54.4    ~7UBM 21.5 GVNEOCPG96
     C2YMPL2  C2020 07 30.44965 23 29 45.83 +06 17 01.1    ~7UBM 22.8 GVNEOCPG96

Station data:
(G96) Mt. Lemmon Survey  (N32.442754 W110.788720)  US/Arizona.  Observers T.
   A. Pruyne, B. M. Africano, E. J. Christensen, G. A. Farneth, D. C. Fuls,
   A. R. Gibbs, A. D. Grauer, H. Gröller, J. A. Johnson, R. A. Kowalski, S.
   M. Larson, G. J. Leonard, D. Rankin, R. L. Seaman, F. C. Shelly. 1.5-m
   reflector + 10K CCD.

Orbital elements:  C2YMPL2
   Perihelion 2020 Aug 18.309627 +/- 42.2 TT =  7:25:51 (JD 2459079.809627)
Epoch 2020 Jul 30.0 TT = JDT 2459060.5   Earth MOID: 0.4490   AutoNEOCP
M 354.22186119 +/- 39               (J2000 ecliptic)
n   0.29923617 +/- 0.409            Peri.   57.45582 +/- 80
a   2.21374021 +/- 2.02             Node   279.25365 +/- 60
e   0.3444703 +/- 0.263             Incl.    4.85689 +/- 28
P   3.29                   H 21.6   G  0.15   U 12.1  SR
q 1.45117226 +/- 0.568    Q 2.97630817 +/- 45835
From 4 observations 2020 July 30 (31.2 min); mean residual 0".35
Residuals in arcseconds: 
200730 G96  .05+  .36-    200730 G96  .58+  .18+    
200730 G96  .36-  .45+    200730 G96  .26-  .28-    

Ephemerides (geocentric):
Date (UTC) HH   RA              Dec         delta   r     elong  mag " sig PA
---- -- -- --  -------------   -----------  ------ ------ -----  --- ---- ---
2020 08 06 07  23 35 04.080   +08 05 47.35  .54527 1.4547 135.6 22.4  59d   3
2020 08 06 08  23 35 05.713   +08 06 25.12  .54510 1.4546 135.6 22.4  59d   3
2020 08 06 09  23 35 07.342   +08 07 02.86  .54493 1.4546 135.6 22.4  59d   3
2020 08 06 10  23 35 08.967   +08 07 40.58  .54477 1.4546 135.7 22.4  59d   3
2020 08 06 11  23 35 10.589   +08 08 18.27  .54460 1.4546 135.7 22.4  59d   3
2020 08 06 12  23 35 12.206   +08 08 55.93  .54444 1.4545 135.7 22.4  59d   3
2020 08 06 13  23 35 13.820   +08 09 33.57  .54427 1.4545 135.8 22.4  59d   3
2020 08 06 14  23 35 15.430   +08 10 11.18  .54411 1.4545 135.8 22.4  59d   2
2020 08 06 15  23 35 17.037   +08 10 48.76  .54394 1.4545 135.8 22.4  60d   2
2020 08 06 16  23 35 18.639   +08 11 26.32  .54378 1.4544 135.8 22.4  60d   2
2020 08 06 17  23 35 20.238   +08 12 03.86  .54362 1.4544 135.9 22.4  60d   2
2020 08 06 18  23 35 21.833   +08 12 41.36  .54345 1.4544 135.9 22.4  60d   2
2020 08 06 19  23 35 23.424   +08 13 18.84  .54329 1.4544 135.9 22.4  61d   2
2020 08 06 20  23 35 25.011   +08 13 56.30  .54312 1.4544 135.9 22.4  61d   2
2020 08 06 21  23 35 26.594   +08 14 33.72  .54296 1.4543 136.0 22.4  61d   2
2020 08 06 22  23 35 28.174   +08 15 11.12  .54280 1.4543 136.0 22.4  62d   2
2020 08 06 23  23 35 29.750   +08 15 48.50  .54263 1.4543 136.0 22.3  62d   2
2020 08 07 00  23 35 31.322   +08 16 25.84  .54247 1.4543 136.1 22.3  62d   2
2020 08 07 01  23 35 32.890   +08 17 03.17  .54231 1.4542 136.1 22.3  63d   2
2020 08 07 02  23 35 34.454   +08 17 40.46  .54215 1.4542 136.1 22.3  63d   2
2020 08 07 03  23 35 36.015   +08 18 17.73  .54198 1.4542 136.1 22.3  63d   2
2020 08 07 04  23 35 37.571   +08 18 54.97  .54182 1.4542 136.2 22.3  63d   2
2020 08 07 05  23 35 39.124   +08 19 32.18  .54166 1.4542 136.2 22.3  63d   2
2020 08 07 06  23 35 40.673   +08 20 09.37  .54150 1.4541 136.2 22.3  63d   2
2020 08 07 07  23 35 42.218   +08 20 46.52  .54134 1.4541 136.2 22.3  64d   2
2020 08 07 08  23 35 43.759   +08 21 23.66  .54117 1.4541 136.3 22.3  64d   2
2020 08 07 09  23 35 45.297   +08 22 00.76  .54101 1.4541 136.3 22.3  64d   2
2020 08 07 10  23 35 46.830   +08 22 37.84  .54085 1.4540 136.3 22.3  64d   2
2020 08 07 11  23 35 48.360   +08 23 14.89  .54069 1.4540 136.4 22.3  64d   2
2020 08 07 12  23 35 49.886   +08 23 51.91  .54053 1.4540 136.4 22.3  64d   2
2020 08 07 13  23 35 51.408   +08 24 28.91  .54037 1.4540 136.4 22.3  64d   2
2020 08 07 14  23 35 52.926   +08 25 05.88  .54021 1.4540 136.4 22.3  64d   2
2020 08 07 15  23 35 54.440   +08 25 42.82  .54005 1.4539 136.5 22.3  64d   2
2020 08 07 16  23 35 55.951   +08 26 19.74  .53989 1.4539 136.5 22.3  64d   2
2020 08 07 17  23 35 57.458   +08 26 56.62  .53973 1.4539 136.5 22.3  65d   2
2020 08 07 18  23 35 58.960   +08 27 33.48  .53957 1.4539 136.5 22.3  65d   2
2020 08 07 19  23 36 00.459   +08 28 10.31  .53941 1.4538 136.6 22.3  65d   2
2020 08 07 20  23 36 01.954   +08 28 47.12  .53925 1.4538 136.6 22.3  65d   2
2020 08 07 21  23 36 03.445   +08 29 23.89  .53909 1.4538 136.6 22.3  65d   2
2020 08 07 22  23 36 04.933   +08 30 00.64  .53893 1.4538 136.7 22.3  65d   3
2020 08 07 23  23 36 06.416   +08 30 37.36  .53877 1.4538 136.7 22.3  65d   3
2020 08 08 00  23 36 07.896   +08 31 14.06  .53861 1.4537 136.7 22.3  65d   3
2020 08 08 01  23 36 09.371   +08 31 50.72  .53845 1.4537 136.7 22.3  65d   3
2020 08 08 02  23 36 10.843   +08 32 27.36  .53829 1.4537 136.8 22.3  65d   3
2020 08 08 03  23 36 12.311   +08 33 03.97  .53813 1.4537 136.8 22.3  65d   3
2020 08 08 04  23 36 13.775   +08 33 40.55  .53798 1.4537 136.8 22.3  66d   3
2020 08 08 05  23 36 15.236   +08 34 17.10  .53782 1.4536 136.9 22.3  66d   3
2020 08 08 06  23 36 16.692   +08 34 53.63  .53766 1.4536 136.9 22.3  66d   3